{"data":{"norad_id":67330,"intl_designator":"2026-002AB","name":"STARLINK-36483","alt_names":[],"object_type":"PAYLOAD","status":"ACTIVE","operator":null,"country":"US","launch_date":"2026-01-04","launch_site_code":"AFETR","launch_vehicle":null,"mission":null,"orbit_class":"UNKNOWN","rcs_meters":null,"size_class":null,"mass_kg":null,"dimensions":null,"purposes":["comms"],"wikipedia_slug":null,"has_3d_model":false,"image_url":null,"decayed_at":null,"tle_current":{"epoch":"2026-05-24T17:16:42.382272Z","epoch_age_seconds":96554,"freshness":"FRESH","line1":"1 67330U 26002AB  26144.71993498  .00017230  00000+0  63441-3 0  9999","line2":"2 67330  43.0002 256.1574 0001571 273.9963  86.0709 15.27568485 22862","mean_motion":15.27568485,"eccentricity":0.0001571,"inclination_deg":43.0002,"raan_deg":256.1574,"arg_perigee_deg":273.9963,"mean_anomaly_deg":86.0709,"bstar":0.00063441,"rev_number":2286,"period_min":94.267459308052,"perigee_km":482.00567855621,"apogee_km":484.16147406129,"semimajor_km":6861.2205763087,"source":"CELESTRAK","updated_at":"2026-05-25T13:38:21.520517Z"}}}